Time,TemperatureF,DewpointF,PressureIn,WindDirection,WindDirectionDegrees,WindSpeedMPH,WindSpeedGustMPH,Humidity,HourlyPrecipIn,Conditions,Clouds,dailyrainin,SoftwareType,DateUTC
2013-05-01 00:05:00,58.4,56.0,30.14,NNW,334,0.0,1.0,93,0.00,,,0.00,weatherlink.com 1.10,2013-05-01 04:05:00,
2013-05-01 00:20:00,58.0,56.0,30.14,NNW,334,0.0,0.0,94,0.00,,,0.00,weatherlink.com 1.10,2013-05-01 04:20:00,
2013-05-01 00:35:00,57.2,56.0,30.15,NNW,334,0.0,0.0,94,0.00,,,0.00,weatherlink.com 1.10,2013-05-01 04:35:00,
2013-05-01 00:50:00,56.7,55.0,30.14,NNW,334,0.0,0.0,94,0.00,,,0.00,weatherlink.com 1.10,2013-05-01 04:50:00,
2013-05-01 01:05:00,56.4,55.0,30.14,ESE,105,0.0,1.0,95,0.00,,,0.00,weatherlink.com 1.10,2013-05-01 05:05:00,
2013-05-01 01:20:00,56.5,55.0,30.14,East,91,0.0,2.0,95,0.00,,,0.00,weatherlink.com 1.10,2013-05-01 05:20:00,
2013-05-01 01:35:00,56.3,55.0,30.15,East,91,0.0,1.0,95,0.00,,,0.00,weatherlink.com 1.10,2013-05-01 05:35:00,
2013-05-01 01:50:00,56.1,55.0,30.15,East,91,0.0,1.0,95,0.00,,,0.00,weatherlink.com 1.10,2013-05-01 05:50:00,
2013-05-01 02:05:00,55.7,54.0,30.15,East,91,0.0,0.0,95,0.00,,,0.00,weatherlink.com 1.10,2013-05-01 06:05:00,
2013-05-01 02:20:00,55.4,54.0,30.15,East,91,0.0,0.0,95,0.00,,,0.00,weatherlink.com 1.10,2013-05-01 06:20:00,
2013-05-01 02:35:00,54.8,53.0,30.15,East,91,0.0,0.0,95,0.00,,,0.00,weatherlink.com 1.10,2013-05-01 06:35:00,
2013-05-01 02:50:00,54.1,53.0,30.14,East,91,0.0,0.0,95,0.00,,,0.00,weatherlink.com 1.10,2013-05-01 06:50:00,
2013-05-01 03:05:00,53.6,53.0,30.15,East,91,0.0,0.0,96,0.00,,,0.00,weatherlink.com 1.10,2013-05-01 07:05:00,
2013-05-01 03:20:00,53.2,52.0,30.14,East,91,0.0,0.0,96,0.00,,,0.00,weatherlink.com 1.10,2013-05-01 07:20:00,
2013-05-01 03:35:00,53.0,52.0,30.14,East,91,0.0,0.0,97,0.00,,,0.00,weatherlink.com 1.10,2013-05-01 07:35:00,
2013-05-01 03:50:00,52.8,52.0,30.14,East,91,0.0,0.0,97,0.00,,,0.00,weatherlink.com 1.10,2013-05-01 07:50:00,
2013-05-01 04:05:00,53.1,52.0,30.14,East,91,0.0,1.0,97,0.00,,,0.00,weatherlink.com 1.10,2013-05-01 08:05:00,
2013-05-01 04:20:00,53.4,53.0,30.15,East,91,0.0,1.0,98,0.00,,,0.00,weatherlink.com 1.10,2013-05-01 08:20:00,
2013-05-01 04:35:00,53.4,53.0,30.15,East,91,0.0,2.0,97,0.00,,,0.00,weatherlink.com 1.10,2013-05-01 08:35:00,
2013-05-01 04:50:00,54.0,53.0,30.15,NE,55,0.0,2.0,97,0.00,,,0.00,weatherlink.com 1.10,2013-05-01 08:50:00,
2013-05-01 05:05:00,54.3,54.0,30.15,North,5,0.0,2.0,98,0.00,,,0.00,weatherlink.com 1.10,2013-05-01 09:05:00,
2013-05-01 05:20:00,54.7,54.0,30.16,NE,52,0.0,2.0,97,0.00,,,0.00,weatherlink.com 1.10,2013-05-01 09:20:00,
2013-05-01 05:35:00,54.9,54.0,30.16,NW,318,1.0,3.0,97,0.00,,,0.00,weatherlink.com 1.10,2013-05-01 09:35:00,
2013-05-01 05:50:00,55.3,55.0,30.16,NE,38,1.0,2.0,97,0.00,,,0.00,weatherlink.com 1.10,2013-05-01 09:50:00,
2013-05-01 06:05:00,55.5,54.0,30.17,ESE,122,0.0,2.0,96,0.00,,,0.00,weatherlink.com 1.10,2013-05-01 10:05:00,
2013-05-01 06:20:00,55.7,55.0,30.18,ESE,122,0.0,1.0,96,0.00,,,0.00,weatherlink.com 1.10,2013-05-01 10:20:00,
2013-05-01 06:35:00,55.9,55.0,30.17,NE,54,1.0,2.0,96,0.00,,,0.00,weatherlink.com 1.10,2013-05-01 10:35:00,
2013-05-01 06:50:00,56.0,55.0,30.18,ENE,67,1.0,3.0,96,0.00,,,0.00,weatherlink.com 1.10,2013-05-01 10:50:00,
2013-05-01 07:05:00,56.0,55.0,30.18,NNE,25,1.0,2.0,95,0.00,,,0.00,weatherlink.com 1.10,2013-05-01 11:05:00,
2013-05-01 07:20:00,56.1,55.0,30.18,ESE,115,0.0,2.0,95,0.00,,,0.00,weatherlink.com 1.10,2013-05-01 11:20:00,
2013-05-01 07:35:00,56.6,55.0,30.19,East,99,0.0,1.0,95,0.00,,,0.00,weatherlink.com 1.10,2013-05-01 11:35:00,
2013-05-01 07:50:00,57.2,56.0,30.18,East,89,0.0,3.0,94,0.00,,,0.00,weatherlink.com 1.10,2013-05-01 11:50:00,
2013-05-01 08:05:00,57.7,56.0,30.19,ENE,63,0.0,7.0,93,0.00,,,0.00,weatherlink.com 1.10,2013-05-01 12:05:00,
2013-05-01 08:21:00,58.1,56.0,30.19,East,86,2.0,4.0,92,0.00,,,0.00,weatherlink.com 1.10,2013-05-01 12:21:00,
2013-05-01 08:36:00,58.6,56.0,30.19,SSW,213,1.0,8.0,91,0.00,,,0.00,weatherlink.com 1.10,2013-05-01 12:36:00,
2013-05-01 08:51:00,59.0,56.0,30.20,East,98,3.0,4.0,90,0.00,,,0.00,weatherlink.com 1.10,2013-05-01 12:51:00,
2013-05-01 09:06:00,59.4,57.0,30.20,SSE,159,3.0,3.0,91,0.00,,,0.00,weatherlink.com 1.10,2013-05-01 13:06:00,
2013-05-01 09:21:00,59.8,57.0,30.21,ESE,110,1.0,4.0,90,0.00,,,0.00,weatherlink.com 1.10,2013-05-01 13:21:00,
2013-05-01 09:36:00,60.2,57.0,30.21,East,88,1.0,5.0,90,0.00,,,0.00,weatherlink.com 1.10,2013-05-01 13:36:00,
2013-05-01 09:51:00,60.9,58.0,30.21,East,97,1.0,4.0,89,0.00,,,0.00,weatherlink.com 1.10,2013-05-01 13:51:00,
2013-05-01 10:06:00,61.4,58.0,30.21,SE,132,4.0,5.0,88,0.00,,,0.00,weatherlink.com 1.10,2013-05-01 14:06:00,
2013-05-01 10:21:00,61.4,57.0,30.22,East,96,0.0,6.0,86,0.00,,,0.00,weatherlink.com 1.10,2013-05-01 14:21:00,
2013-05-01 10:36:00,61.2,57.0,30.23,East,80,1.0,3.0,87,0.00,,,0.00,weatherlink.com 1.10,2013-05-01 14:36:00,
2013-05-01 10:51:00,61.3,58.0,30.24,ENE,70,0.0,2.0,88,0.00,,,0.00,weatherlink.com 1.10,2013-05-01 14:51:00,
2013-05-01 11:06:00,61.3,58.0,30.25,NNE,29,1.0,2.0,89,0.00,,,0.00,weatherlink.com 1.10,2013-05-01 15:06:00,
2013-05-01 11:21:00,62.0,58.0,30.24,ESE,107,3.0,7.0,86,0.00,,,0.00,weatherlink.com 1.10,2013-05-01 15:21:00,
2013-05-01 11:36:00,62.5,58.0,30.23,ESE,119,3.0,4.0,85,0.00,,,0.00,weatherlink.com 1.10,2013-05-01 15:36:00,
2013-05-01 11:51:00,62.3,58.0,30.23,ESE,111,0.0,4.0,85,0.00,,,0.00,weatherlink.com 1.10,2013-05-01 15:51:00,
2013-05-01 12:06:00,61.8,58.0,30.24,East,92,3.0,5.0,86,0.00,,,0.00,weatherlink.com 1.10,2013-05-01 16:06:00,
2013-05-01 12:21:00,62.0,58.0,30.23,East,100,1.0,5.0,85,0.00,,,0.00,weatherlink.com 1.10,2013-05-01 16:21:00,
2013-05-01 12:36:00,62.2,58.0,30.22,NNE,14,1.0,3.0,85,0.00,,,0.00,weatherlink.com 1.10,2013-05-01 16:36:00,
2013-05-01 12:51:00,62.0,58.0,30.22,ESE,113,1.0,5.0,87,0.00,,,0.00,weatherlink.com 1.10,2013-05-01 16:51:00,
2013-05-01 13:06:00,63.2,59.0,30.21,NE,52,1.0,5.0,85,0.00,,,0.00,weatherlink.com 1.10,2013-05-01 17:06:00,
2013-05-01 13:21:00,64.4,59.0,30.20,East,98,3.0,5.0,83,0.00,,,0.00,weatherlink.com 1.10,2013-05-01 17:21:00,
2013-05-01 13:36:00,64.5,59.0,30.20,East,95,1.0,7.0,81,0.00,,,0.00,weatherlink.com 1.10,2013-05-01 17:36:00,
2013-05-01 13:51:00,63.8,58.0,30.20,East,101,1.0,4.0,81,0.00,,,0.00,weatherlink.com 1.10,2013-05-01 17:51:00,
2013-05-01 14:06:00,63.9,59.0,30.20,ENE,76,1.0,6.0,83,0.00,,,0.00,weatherlink.com 1.10,2013-05-01 18:06:00,
2013-05-01 14:21:00,64.9,59.0,30.20,East,98,1.0,5.0,81,0.00,,,0.00,weatherlink.com 1.10,2013-05-01 18:21:00,
2013-05-01 14:36:00,64.9,59.0,30.21,East,96,1.0,5.0,81,0.00,,,0.00,weatherlink.com 1.10,2013-05-01 18:36:00,
2013-05-01 14:51:00,64.2,59.0,30.21,NNW,341,0.0,3.0,83,0.00,,,0.00,weatherlink.com 1.10,2013-05-01 18:51:00,
2013-05-01 15:06:00,64.0,58.0,30.21,SSE,164,2.0,5.0,82,0.00,,,0.00,weatherlink.com 1.10,2013-05-01 19:06:00,
2013-05-01 15:21:00,63.8,59.0,30.22,ESE,104,2.0,6.0,84,0.00,,,0.00,weatherlink.com 1.10,2013-05-01 19:21:00,
2013-05-01 15:36:00,63.8,59.0,30.21,ESE,106,0.0,5.0,83,0.00,,,0.00,weatherlink.com 1.10,2013-05-01 19:36:00,
2013-05-01 15:51:00,63.5,59.0,30.21,ESE,107,1.0,4.0,84,0.00,,,0.00,weatherlink.com 1.10,2013-05-01 19:51:00,
2013-05-01 16:06:00,63.7,59.0,30.21,WNW,289,1.0,5.0,84,0.00,,,0.00,weatherlink.com 1.10,2013-05-01 20:06:00,
2013-05-01 16:21:00,63.9,59.0,30.20,East,99,0.0,2.0,83,0.00,,,0.00,weatherlink.com 1.10,2013-05-01 20:21:00,
2013-05-01 16:36:00,63.5,58.0,30.20,ESE,115,2.0,5.0,82,0.00,,,0.00,weatherlink.com 1.10,2013-05-01 20:36:00,
2013-05-01 16:51:00,63.4,59.0,30.21,East,98,1.0,2.0,84,0.00,,,0.00,weatherlink.com 1.10,2013-05-01 20:51:00,
2013-05-01 17:06:00,63.7,59.0,30.20,ENE,71,1.0,3.0,83,0.00,,,0.00,weatherlink.com 1.10,2013-05-01 21:06:00,
2013-05-01 17:21:00,63.4,59.0,30.21,East,80,0.0,3.0,84,0.00,,,0.00,weatherlink.com 1.10,2013-05-01 21:21:00,
2013-05-01 17:36:00,63.2,58.0,30.20,ESE,113,2.0,4.0,84,0.00,,,0.00,weatherlink.com 1.10,2013-05-01 21:36:00,
2013-05-01 17:51:00,63.0,59.0,30.20,NE,51,2.0,6.0,85,0.00,,,0.00,weatherlink.com 1.10,2013-05-01 21:51:00,
2013-05-01 18:06:00,63.3,59.0,30.21,East,101,2.0,3.0,85,0.00,,,0.00,weatherlink.com 1.10,2013-05-01 22:06:00,
2013-05-01 18:21:00,63.1,59.0,30.21,East,85,2.0,9.0,85,0.00,,,0.00,weatherlink.com 1.10,2013-05-01 22:21:00,
2013-05-01 18:36:00,62.6,58.0,30.21,NE,51,0.0,5.0,86,0.00,,,0.00,weatherlink.com 1.10,2013-05-01 22:36:00,
2013-05-01 18:51:00,62.5,59.0,30.20,East,96,0.0,3.0,87,0.00,,,0.00,weatherlink.com 1.10,2013-05-01 22:51:00,
2013-05-01 19:06:00,62.2,58.0,30.20,East,99,0.0,3.0,87,0.00,,,0.00,weatherlink.com 1.10,2013-05-01 23:06:00,
2013-05-01 19:21:00,61.8,58.0,30.20,SE,143,2.0,4.0,87,0.00,,,0.00,weatherlink.com 1.10,2013-05-01 23:21:00,
2013-05-01 19:36:00,61.6,58.0,30.21,ENE,71,1.0,3.0,88,0.00,,,0.00,weatherlink.com 1.10,2013-05-01 23:36:00,
2013-05-01 19:51:00,61.4,58.0,30.21,East,96,0.0,2.0,89,0.00,,,0.00,weatherlink.com 1.10,2013-05-01 23:51:00,
2013-05-01 20:06:00,61.2,58.0,30.22,ENE,78,2.0,3.0,89,0.00,,,0.00,weatherlink.com 1.10,2013-05-02 00:06:00,
2013-05-01 20:21:00,60.9,58.0,30.22,East,99,2.0,5.0,89,0.00,,,0.00,weatherlink.com 1.10,2013-05-02 00:21:00,
2013-05-01 20:36:00,60.7,58.0,30.22,East,84,2.0,7.0,89,0.00,,,0.00,weatherlink.com 1.10,2013-05-02 00:36:00,
2013-05-01 20:51:00,60.6,57.0,30.23,WNW,285,0.0,6.0,89,0.00,,,0.00,weatherlink.com 1.10,2013-05-02 00:51:00,
2013-05-01 21:06:00,60.5,58.0,30.23,East,98,0.0,3.0,90,0.00,,,0.00,weatherlink.com 1.10,2013-05-02 01:06:00,
2013-05-01 21:21:00,60.4,58.0,30.23,ESE,107,1.0,2.0,90,0.00,,,0.00,weatherlink.com 1.10,2013-05-02 01:21:00,
2013-05-01 21:36:00,60.1,58.0,30.24,ENE,67,0.0,3.0,91,0.00,,,0.00,weatherlink.com 1.10,2013-05-02 01:36:00,
2013-05-01 21:51:00,59.9,57.0,30.24,ESE,115,1.0,7.0,91,0.00,,,0.00,weatherlink.com 1.10,2013-05-02 01:51:00,
2013-05-01 22:06:00,59.6,57.0,30.24,ESE,103,4.0,4.0,91,0.00,,,0.00,weatherlink.com 1.10,2013-05-02 02:06:00,
2013-05-01 22:21:00,59.3,57.0,30.25,East,100,1.0,3.0,92,0.00,,,0.00,weatherlink.com 1.10,2013-05-02 02:21:00,
2013-05-01 22:36:00,59.3,57.0,30.25,East,90,2.0,6.0,91,0.00,,,0.00,weatherlink.com 1.10,2013-05-02 02:36:00,
2013-05-01 22:52:00,59.2,57.0,30.25,East,88,1.0,5.0,92,0.00,,,0.00,weatherlink.com 1.10,2013-05-02 02:52:00,
2013-05-01 23:07:00,59.1,57.0,30.25,NNW,330,1.0,5.0,92,0.00,,,0.00,weatherlink.com 1.10,2013-05-02 03:07:00,
2013-05-01 23:22:00,59.1,57.0,30.25,East,101,0.0,3.0,92,0.00,,,0.00,weatherlink.com 1.10,2013-05-02 03:22:00,
2013-05-01 23:37:00,58.9,57.0,30.25,East,96,3.0,3.0,93,0.00,,,0.00,weatherlink.com 1.10,2013-05-02 03:37:00,
2013-05-01 23:52:00,58.5,57.0,30.25,NE,43,0.0,3.0,94,0.00,,,0.00,weatherlink.com 1.10,2013-05-02 03:52:00,